ATLAS 5 CENTAUR DEB, 44006

Orbit data source: Space-Track

ATLAS 5 CENTAUR DEB, 44006 is space debris in HEO originally from a launch on Wed, 17 Sep 2014 UTC launched from the Air Force Eastern Test Range (AFETR). Debris objects in space refer to the collection of defunct objects orbiting the Earth. Examples of debris include non-operational satellites, rocket bodies, and fragments generated from explosions, collisions, or faulty payload assembly.

Loading next visibility...
Identifier
44006, 2014-055BM
Orbit
HEO
Country
Flag of USUS
Related business
Flag of USUnited Launch Alliance/Lockheed Martin (US)
Manufacturer
Unknown
Mission
Spacecraft
Bus & Motor
Unknown
Mass
Unknown
Launch date (UTC)
2014-09-17 (12 years ago)
Launch vehicle
Unknown
Launch site
Air Force Eastern Test Range (AFETR)
Object type
Payload
Rocket body
Debris
Shape & HBR
Unknown shape, 1.1 m
Radar Cross Section
Medium (>0.1 m² and <1 m²)

Expand to show TLE details & history
Last TLE update: 1 month ago

TLE from 1 month ago
0 ATLAS 5 CENTAUR DEB
1 44006U 14055BM  26205.45798876 -.00000171  00000-0  00000-0 0  9998
2 44006  20.6093 123.9879 4853155 203.8566 122.8452  1.88616361 53952
Epoch: 2026-07-24T10:59Z
TLE epoch observation values (Epoch: 2026-07-24T10:59:30.228Z)
Latitude
0.00003°
Longitude
16.91424°
Altitude
31,686.033 km
Speed
2.557 km/s
True Right ascension
08h 15m 53s
True Declination
0° 00' 00"
Sunlit
Object was in daylight at epoch
Visualization orbit readout
Latitude
Unknown
Longitude
Unknown
Altitude
Unknown
Speed
Unknown
Apparent Right ascension
Unknown
Apparent Declination
Unknown
Sunlit
N/A
Visualization observer readout
Local Sidereal Time
15:52:57
Azimuth
Unknown
Elevation
Unknown
Doppler factor
Unknown
Orbital elements
Apogee altitude
34,724.057 km
Perigee altitude
7,864.401 km
Semi-major axis
27,672.366 km
Eccentricity
0.48532
Inclination
20.6093°
RAAN
123.9879°
Arg. of periapsis
203.8566°
True anomaly
156.1474°
Mean anomaly
122.8452°
Eccentric anomaly
140.52352°
Mean motion
0.47149 °/min
Orbital period
763.53 mins
BSTAR
0
Loading maneuver chart data...
Computing Atmospheric mass density...

Documentation

Showing up to 5 results
|